Vertical_Velocity
-0 0 0 -0 -0 -1 -0 -1 -2 -3 -3 -3 -2 -2 0 0 -1 -9 3 -3 -4 -5 2 3 2 3 9 -2 -1 15 -15 -1 7 -10 0 11 20 15 5 -4 4 1 -5 6 -3 -2 0 2 3 -3 -2 7 9 6
-0 1 0 0 1 2 1 1 -1 -2 -3 -4 -2 -0 0 1 0 -8 -3 -0 -3 -20 7 2 -0 3 -6 8 -3 -4 -1 0 -6 10 -3 -3 -13 6 21 -8 2 -12 3 -2 -0 7 11 0 -2 3 -3 0 9 1
0 0 0 0 1 1 -1 1 0 -2 -3 -1 -0 -1 -0 0 0 -7 0 2 -7 -10 -15 -16 27 31 -26 -5 -5 -18 -1 -0 10 20 14 10 -17 10 -5 4 6 -2 5 -7 -8 6 0 -5 -6 1 -1 -1 -4 -4
1 1 2 1 1 2 1 -0 -2 -1 0 -1 -2 1 -1 -3 -1 -2 -5 -2 -2 -9 -19 25 -10 -9 -13 -12 -8 8 33 -15 13 -10 54 40 8 10 5 -6 2 -2 -3 6 -4 12 -14 6 7 -2 0 0 -5 -6
-0 -0 0 1 1 -1 -3 -3 -2 0 -2 -1 1 -2 -3 1 1 4 -4 0 1 -3 13 -5 6 6 7 3 1 4 -2 19 10 2 8 8 18 20 8 -0 -8 6 8 -7 3 -4 -14 2 8 3 1 -1 -5 -2
1 1 2 1 -1 -1 -1 -1 -1 -1 2 1 -1 1 -3 12 14 -0 -5 5 1 -1 8 8 11 31 21 26 -1 -7 2 -4 -15 0 -1 10 5 -0 2 -8 6 3 4 0 8 -11 -4 -6 -5 -7 -9 -4 4 -1
-0 2 0 -0 0 -2 -3 -5 -3 2 2 -2 8 -2 1 1 7 3 16 16 8 5 -1 6 9 9 29 24 -8 5 16 5 10 50 13 -2 -1 -4 -3 -4 5 7 11 -7 -7 -10 -10 -8 -10 -10 -4 -4 -7 -5
4 3 0 1 -2 -1 1 5 6 4 -1 1 3 4 6 5 -2 8 6 1 4 6 3 -5 0 3 2 9 48 46 28 22 20 9 3 -1 1 -2 -9 8 6 9 -6 -5 -1 -12 3 6 6 -3 -6 2 8 1
4 -2 -4 -6 -2 3 5 6 5 4 6 6 7 1 -0 2 -1 -0 2 -5 -4 3 -1 -0 2 3 3 8 0 2 5 10 4 -0 -2 -8 -5 -23 10 6 -0 -0 -12 -2 -2 -4 -1 1 4 0 -0 9 0 -1
-5 -4 -0 -2 1 2 6 3 3 -0 -1 -0 9 5 -2 4 5 2 -1 5 3 1 4 0 4 -2 -7 -1 -1 -7 -8 -11 -6 -6 -9 -13 -18 2 10 4 -12 3 2 -1 -6 -1 -8 -0 4 12 3 2 3 -2
0 -2 -2 0 0 -0 2 -0 -0 -1 3 5 1 3 5 0 4 2 3 3 -1 2 0 -2 -4 5 3 -1 1 1 1 -0 -6 3 -2 -4 7 29 1 -20 9 -5 -4 -12 -2 0 -1 -4 -3 2 6 1 1 1
2 1 1 -0 0 -2 -3 -4 -5 -2 -4 -3 7 9 4 5 2 1 7 3 4 -1 2 8 2 -3 -2 1 3 3 -1 -0 -4 -1 -8 1 -20 -8 2 5 -5 -9 -10 -3 6 -1 -0 0 5 4 2 1 -1 -2
-5 -4 -2 2 -1 1 3 2 -3 -2 -5 -2 -1 2 3 6 -1 -0 -1 6 8 6 2 -5 -8 -4 -4 -1 -2 -2 -1 -4 -1 -9 -9 -6 1 -5 -3 -2 -5 -2 1 -1 0 2 2 -1 0 -0 -1 -2 -2 -3
-3 -2 4 4 5 1 -3 -3 1 3 -4 -2 -2 -3 -6 -8 -9 -15 -9 -7 -8 -8 -3 -3 -3 -0 1 -1 -1 -3 -9 -1 -2 -1 -2 1 -3 2 3 1 1 2 1 -1 -1 -2 -3 -2 -1 -2 -4 0 2 2
2 2 2 -2 -7 -4 -2 -1 -4 -3 10 4 1 5 7 8 5 -1 2 2 -2 3 8 1 6 1 -3 -2 -5 -3 -1 0 1 -0 -1 -1 -2 -1 0 -0 -0 -1 -1 -0 -0 -0 -1 -1 -2 -1 2 2 1 0
-0 -2 -4 -4 -1 -4 -7 -6 -3 -2 4 7 3 8 8 4 -2 -3 1 4 24 8 0 -3 -1 -2 -1 -0 5 2 2 1 -3 -1 -1 -2 -0 0 -0 1 -0 0 0 0 -1 -0 0 -1 1 2 2 2 1 -0
2 2 -1 1 1 -0 -2 -2 1 -0 -11 -4 1 3 3 3 1 3 1 -2 16 12 4 0 0 -2 -0 -3 -3 -1 3 -2 -0 -1 -0 -0 -1 -1 -0 -0 -0 -1 -1 0 2 0 -1 1 2 1 0 -0 -0 0
-2 -0 1 -2 -3 -3 -2 -1 -1 3 0 -2 -5 -1 0 1 -1 -1 3 2 1 -1 -0 -0 1 -0 -1 0 -1 0 -1 -1 -1 -1 -1 -0 -1 -2 -2 -1 -1 -1 0 0 0 0 1 2 1 -1 -1 -0 0 -0
1 -1 -1 -0 -1 -1 -1 -2 1 1 -1 -2 -1 -3 -2 -1 -1 -0 -1 -1 -0 -0 1 -1 -1 -1 -2 -1 -1 -0 0 -0 0 1 -0 -1 -1 -0 -0 -0 -0 0 0 0 0 0 0 0 0 1 0 -0 -0 -0
1 1 0 -2 -2 -3 -3 -5 -3 -0 5 -2 -1 -2 -0 -1 -1 -0 -1 0 0 -0 1 0 -2 -3 1 1 -2 -1 -1 -1 -1 -1 0 1 1 0 -0 0 0 0 -0 -0 -0 -0 0 0 1 0 -0 -0 -0 -0
-1 0 0 -0 -1 -1 -4 -6 -2 -2 -2 -0 0 -1 -2 -1 -0 -0 -0 0 1 0 -0 -2 -1 2 1 1 -0 0 -1 -1 -1 0 -0 -1 0 1 1 1 1 1 1 0 0 -0 0 0 0 0 0 0 1 1
2 1 -0 -0 -1 -3 -0 0 -3 -2 -5 -2 0 -5 -3 -1 -1 -3 -2 -2 2 -4 0 -3 -1 -0 -1 -1 -0 -0 -1 -1 -1 -0 -1 -1 -0 0 0 1 1 0 1 1 -0 -0 1 1 0 0 0 -0 0 -0
1 1 2 1 -2 -1 5 -2 -2 1 -5 2 -2 -4 -3 -1 -2 -5 -5 2 2 -4 -1 -2 -2 -1 -1 -1 0 -0 -0 -1 -1 -0 0 -0 0 1 0 -0 -0 -0 1 1 1 0 1 0 -0 0 0 -0 -0 -0
2 -0 1 -4 2 2 2 2 0 1 0 2 0 -2 -1 -1 0 -7 -3 6 -0 -5 -2 -2 -0 1 0 0 -1 -0 0 0 0 0 1 0 -0 -0 0 1 1 0 0 1 1 1 1 0 0 -0 -0 -1 -0 0
-0 2 -3 0 0 1 3 3 2 1 2 -2 0 0 2 -4 -4 -4 4 6 -6 -3 -1 -1 0 1 1 -1 0 0 0 0 0 0 -0 -0 0 0 0 0 0 -0 -0 -1 -0 0 0 0 0 0 -0 -0 -0 -0
4 -2 -0 5 2 3 3 2 2 1 1 -0 -0 0 -1 -1 -1 2 4 -4 -3 -0 -1 -0 -0 -0 1 -1 -1 -1 1 0 -0 -0 -0 -0 1 1 1 1 0 0 -0 -0 -0 -0 -0 -0 0 0 0 -0 -0 -0
2 2 4 3 1 1 0 2 -0 -0 0 -1 2 0 -1 -0 2 3 -1 2 0 -1 -1 -1 -0 -1 -0 1 -1 -0 1 1 1 1 0 1 1 1 1 0 1 1 2 1 1 1 1 1 1 1 0 0 -0 0
2 2 0 -2 0 2 1 2 3 3 2 -1 2 2 -5 2 4 -2 -1 1 2 2 0 -0 -0 -1 -0 -0 1 1 -0 -0 1 1 0 1 0 0 0 0 0 1 1 1 1 1 1 1 0 0 -0 -1 -0 1
2 2 3 1 2 2 2 1 1 0 -0 -1 2 -1 -0 2 0 -2 1 0 1 0 -1 -0 -0 0 -0 0 0 1 1 0 0 0 0 -0 0 -2 0 1 1 0 0 0 1 1 1 1 1 1 0 0 1 1
-0 1 2 1 1 2 -0 -1 1 -1 -0 -1 -1 0 2 4 -3 -3 0 1 -1 -4 -3 2 -0 -1 -2 0 -0 1 0 0 1 0 0 -1 -3 3 2 0 0 1 1 1 1 1 0 1 1 1 -0 0 1 0
2 1 1 3 2 -3 1 2 1 0 1 0 -1 -0 -0 -1 2 2 0 -4 -2 -1 1 3 2 1 1 0 -1 -1 2 0 0 1 1 -1 1 1 -0 -0 0 0 0 1 1 1 1 1 2 1 0 1 1 0
0 1 -1 2 1 -0 0 1 2 3 0 0 -1 0 -1 1 4 1 -8 -1 1 1 -1 1 2 0 -2 1 2 4 2 -1 1 1 0 0 0 0 2 1 1 1 1 1 1 1 1 1 2 1 0 0 1 0
1 -1 -1 0 1 -1 -3 1 3 3 2 1 0 -1 -1 0 -1 -3 -2 -1 -1 -1 -0 -0 -0 0 -0 1 1 0 0 -0 1 2 0 -1 -0 -0 0 0 -0 0 2 1 1 1 2 2 2 1 0 0 0 0
Height
5389 5391 5394 5397 5400 5404 5406 5409 5411 5413 5416 5418 5421 5423 5424 5426 5427 5429 5432 5432 5431 5434 5441 5442 5445 5449 5452 5455 5458 5463 5465 5470 5475 5477 5483 5488 5494 5498 5503 5508 5512 5515 5517 5519 5520 5518 5517 5518 5518 5521 5522 5520 5518 5518
5383 5386 5389 5391 5394 5397 5400 5402 5404 5406 5408 5410 5412 5414 5416 5418 5419 5418 5421 5420 5417 5416 5428 5430 5432 5437 5439 5444 5444 5448 5455 5460 5465 5471 5478 5484 5487 5490 5497 5499 5503 5508 5510 5512 5514 5513 5513 5512 5513 5514 5515 5515 5513 5512
5377 5379 5382 5384 5387 5390 5392 5395 5397 5398 5401 5403 5405 5407 5409 5410 5409 5407 5409 5409 5405 5404 5408 5414 5423 5427 5423 5429 5433 5436 5447 5454 5461 5469 5475 5478 5480 5484 5489 5493 5497 5500 5502 5504 5506 5509 5508 5508 5507 5508 5508 5508 5508 5507
5370 5372 5375 5377 5379 5382 5384 5386 5388 5390 5393 5395 5397 5399 5400 5400 5399 5399 5399 5397 5393 5394 5394 5404 5405 5409 5414 5419 5423 5433 5442 5445 5453 5460 5463 5469 5472 5476 5482 5486 5489 5492 5495 5498 5500 5501 5502 5502 5502 5501 5499 5498 5498 5498
5363 5365 5368 5370 5372 5374 5376 5378 5381 5384 5386 5389 5392 5393 5394 5394 5394 5392 5391 5388 5386 5389 5393 5395 5400 5406 5412 5415 5421 5429 5436 5443 5449 5454 5457 5462 5466 5470 5474 5477 5483 5487 5489 5491 5492 5492 5494 5496 5496 5494 5492 5490 5489 5489
5361 5362 5364 5365 5366 5367 5369 5372 5376 5379 5382 5386 5389 5391 5392 5389 5387 5387 5387 5384 5385 5389 5395 5398 5403 5405 5411 5417 5418 5427 5435 5441 5446 5449 5453 5455 5459 5465 5468 5473 5478 5479 5481 5482 5484 5484 5486 5486 5486 5486 5487 5486 5484 5482
5358 5359 5359 5359 5358 5358 5359 5363 5369 5375 5380 5385 5388 5390 5390 5388 5386 5386 5388 5391 5392 5395 5397 5399 5402 5407 5411 5414 5418 5424 5432 5437 5442 5443 5449 5452 5455 5460 5465 5469 5471 5473 5473 5474 5475 5475 5476 5475 5474 5474 5474 5472 5472 5472
5355 5355 5354 5351 5348 5348 5350 5355 5365 5374 5379 5384 5387 5389 5391 5390 5390 5390 5392 5395 5396 5398 5399 5400 5404 5408 5410 5413 5415 5422 5429 5433 5436 5440 5445 5448 5452 5456 5461 5464 5464 5464 5463 5466 5465 5463 5463 5461 5459 5459 5459 5458 5459 5461
5351 5352 5352 5351 5350 5352 5355 5361 5368 5375 5381 5384 5388 5390 5391 5392 5393 5394 5396 5398 5400 5403 5402 5405 5408 5410 5412 5415 5418 5421 5425 5430 5435 5440 5443 5445 5448 5452 5456 5455 5454 5454 5453 5451 5448 5447 5445 5445 5447 5450 5449 5450 5452 5453
5350 5353 5354 5355 5356 5359 5363 5367 5373 5379 5382 5385 5388 5391 5392 5393 5395 5396 5400 5402 5403 5405 5405 5406 5408 5412 5416 5416 5418 5423 5427 5430 5434 5438 5439 5441 5444 5446 5444 5444 5445 5442 5438 5439 5439 5438 5438 5439 5440 5442 5444 5444 5445 5446
5353 5357 5359 5361 5363 5366 5370 5374 5378 5382 5386 5388 5389 5392 5394 5396 5397 5400 5401 5402 5404 5406 5407 5408 5409 5409 5413 5416 5418 5420 5423 5426 5428 5431 5432 5433 5435 5433 5430 5433 5435 5434 5435 5436 5435 5435 5435 5435 5436 5438 5439 5439 5439 5440
5359 5362 5365 5367 5370 5372 5376 5379 5383 5386 5388 5391 5393 5394 5396 5397 5399 5401 5402 5403 5403 5404 5405 5407 5409 5410 5411 5412 5414 5417 5418 5421 5422 5425 5425 5427 5424 5417 5420 5425 5428 5431 5432 5432 5432 5432 5433 5433 5433 5433 5434 5434 5434 5435
5367 5370 5372 5373 5376 5378 5380 5383 5385 5388 5390 5393 5394 5396 5396 5398 5399 5400 5401 5402 5402 5403 5405 5407 5408 5409 5410 5412 5414 5415 5415 5417 5419 5422 5423 5424 5422 5420 5420 5423 5425 5426 5428 5429 5430 5430 5430 5430 5429 5429 5429 5429 5429 5430
5373 5374 5375 5377 5379 5381 5383 5384 5386 5388 5391 5393 5394 5395 5395 5395 5396 5395 5398 5400 5402 5402 5402 5403 5405 5406 5406 5408 5410 5412 5414 5414 5417 5420 5421 5420 5420 5421 5421 5422 5423 5425 5426 5426 5426 5426 5426 5425 5424 5424 5425 5427 5427 5427
5378 5377 5376 5377 5379 5380 5382 5385 5387 5388 5390 5390 5391 5391 5391 5392 5392 5391 5394 5398 5400 5401 5401 5402 5403 5405 5406 5407 5408 5411 5412 5413 5415 5417 5418 5419 5419 5420 5420 5421 5422 5422 5423 5423 5422 5421 5421 5421 5422 5423 5424 5425 5425 5425
5385 5385 5385 5385 5385 5386 5386 5387 5388 5388 5387 5387 5389 5389 5390 5391 5392 5394 5396 5396 5398 5398 5399 5401 5403 5405 5406 5406 5408 5409 5410 5412 5414 5414 5415 5415 5416 5417 5417 5418 5418 5418 5417 5417 5417 5418 5418 5419 5421 5422 5422 5423 5423 5423
5387 5388 5388 5388 5388 5388 5388 5389 5390 5389 5387 5387 5389 5390 5391 5392 5392 5394 5395 5396 5397 5398 5399 5401 5402 5403 5405 5405 5406 5407 5408 5408 5409 5410 5411 5411 5412 5412 5412 5411 5411 5411 5412 5413 5414 5415 5416 5417 5418 5419 5420 5420 5420 5420
5385 5386 5386 5386 5387 5388 5388 5388 5389 5389 5389 5390 5391 5391 5392 5392 5393 5394 5394 5396 5397 5398 5399 5400 5401 5402 5402 5403 5403 5403 5404 5404 5405 5405 5406 5406 5406 5406 5406 5406 5407 5408 5409 5410 5410 5411 5413 5414 5416 5416 5417 5417 5417 5417
5381 5382 5383 5384 5384 5385 5386 5386 5387 5388 5389 5390 5390 5391 5392 5392 5393 5393 5394 5395 5395 5396 5397 5398 5399 5399 5399 5399 5399 5398 5398 5399 5399 5400 5401 5401 5402 5402 5403 5403 5404 5405 5406 5407 5408 5409 5410 5412 5413 5413 5413 5413 5413 5412
5375 5376 5377 5378 5379 5380 5380 5382 5383 5384 5385 5386 5387 5389 5389 5390 5391 5391 5392 5392 5393 5394 5394 5395 5395 5395 5395 5395 5395 5394 5394 5395 5395 5396 5397 5397 5398 5399 5400 5400 5400 5401 5402 5404 5405 5406 5407 5408 5409 5409 5410 5409 5409 5408
5370 5370 5370 5370 5371 5372 5373 5373 5376 5378 5379 5380 5381 5383 5385 5386 5386 5387 5387 5388 5389 5390 5390 5390 5390 5391 5391 5390 5390 5390 5390 5391 5391 5392 5393 5394 5395 5396 5397 5397 5397 5398 5399 5401 5402 5403 5404 5405 5405 5406 5406 5405 5405 5404
5364 5364 5364 5364 5364 5364 5366 5367 5369 5370 5371 5373 5374 5375 5377 5379 5380 5381 5382 5383 5384 5384 5385 5385 5385 5386 5386 5385 5385 5386 5386 5387 5387 5388 5389 5390 5391 5392 5392 5393 5393 5394 5396 5397 5398 5399 5400 5401 5401 5402 5401 5401 5401 5400
5356 5356 5357 5358 5358 5359 5362 5360 5361 5362 5363 5364 5366 5367 5369 5371 5373 5374 5376 5377 5377 5377 5378 5379 5379 5380 5380 5380 5380 5381 5382 5382 5383 5383 5385 5386 5387 5388 5388 5388 5388 5389 5391 5392 5394 5395 5396 5397 5397 5397 5397 5397 5397 5396
5348 5349 5349 5349 5352 5353 5354 5354 5354 5355 5356 5356 5357 5359 5360 5362 5364 5365 5368 5370 5370 5370 5371 5372 5373 5374 5374 5374 5375 5376 5377 5377 5378 5379 5380 5381 5382 5383 5383 5384 5384 5385 5387 5388 5389 5390 5391 5392 5392 5393 5393 5392 5392 5391
5338 5341 5340 5342 5343 5345 5347 5348 5348 5349 5349 5349 5350 5352 5353 5354 5355 5357 5360 5362 5361 5362 5364 5365 5366 5367 5368 5368 5369 5370 5371 5372 5373 5374 5375 5376 5377 5378 5379 5380 5381 5382 5383 5384 5385 5386 5387 5388 5388 5388 5387 5387 5386 5385
5329 5330 5331 5335 5337 5338 5339 5340 5340 5341 5342 5343 5344 5345 5345 5346 5347 5349 5351 5351 5352 5354 5356 5357 5358 5359 5360 5361 5362 5364 5365 5366 5367 5368 5369 5370 5372 5373 5374 5375 5376 5377 5378 5379 5380 5381 5382 5382 5382 5382 5382 5381 5380 5379
5320 5322 5324 5326 5327 5329 5330 5331 5332 5333 5333 5334 5336 5337 5337 5339 5340 5342 5342 5343 5344 5345 5347 5348 5350 5351 5353 5354 5355 5357 5358 5359 5361 5362 5363 5364 5365 5367 5368 5370 5371 5372 5373 5374 5374 5375 5376 5376 5376 5376 5375 5375 5374 5372
5314 5314 5315 5317 5318 5320 5322 5323 5324 5325 5325 5326 5327 5327 5327 5330 5332 5332 5333 5335 5336 5338 5339 5340 5342 5344 5345 5346 5348 5350 5351 5352 5354 5355 5356 5357 5358 5360 5361 5362 5364 5365 5366 5367 5368 5368 5369 5369 5369 5369 5368 5368 5367 5366
5308 5308 5309 5309 5310 5311 5313 5314 5315 5315 5316 5316 5318 5318 5320 5320 5321 5322 5324 5326 5327 5329 5330 5332 5334 5335 5337 5338 5340 5341 5343 5345 5346 5348 5349 5350 5351 5353 5354 5356 5357 5358 5359 5360 5360 5361 5361 5361 5361 5362 5362 5361 5361 5360
5302 5302 5302 5302 5303 5303 5304 5304 5306 5306 5307 5307 5308 5310 5311 5311 5311 5312 5313 5314 5316 5317 5320 5323 5324 5326 5327 5329 5331 5333 5334 5336 5338 5340 5341 5342 5343 5345 5347 5348 5349 5350 5351 5352 5353 5353 5353 5354 5354 5354 5355 5354 5354 5353
5295 5295 5295 5295 5295 5295 5295 5296 5296 5296 5297 5297 5297 5299 5300 5301 5302 5303 5303 5304 5305 5307 5309 5312 5314 5316 5317 5319 5321 5323 5325 5327 5328 5330 5332 5333 5335 5337 5338 5339 5341 5342 5343 5343 5344 5345 5345 5346 5347 5347 5347 5347 5347 5346
5289 5289 5289 5289 5288 5288 5288 5288 5288 5288 5288 5288 5288 5289 5289 5290 5293 5292 5291 5294 5296 5297 5298 5300 5302 5304 5306 5308 5310 5312 5314 5316 5318 5320 5321 5323 5325 5327 5329 5330 5331 5333 5334 5335 5335 5336 5337 5338 5339 5339 5340 5340 5340 5339
5281 5281 5280 5281 5281 5281 5281 5281 5281 5281 5280 5280 5280 5279 5279 5280 5281 5281 5281 5282 5285 5286 5288 5290 5291 5293 5294 5296 5298 5300 5303 5305 5307 5309 5311 5313 5315 5317 5319 5320 5322 5323 5324 5325 5327 5328 5329 5330 5331 5332 5332 5332 5332 5332